GALAXY 35 (G-35)

Last updated on Mon Feb 16 2026 00:02:51 GMT+0000 (Coordinated Universal Time)

1 54741U 22170A 26046.52200381 -.00000158 00000+0 00000+0 0 9995 2 54741 0.0162 118.5833 0001794 210.9085 270.8338 1.00272598 11677
UTC large
Height (km)
Speed (km/s)
/
Latitude / Longitude
Inclination (degrees)
Orbital Period (minutes)
Azimuth
Elevation
Range (km)
Doppler Factor

Next 0 passes for location: London (51.5072 / 0.1276)

Sorry there are no passes over London.